Regional Weather Roundup
Issued by NWS Cleveland, OH

Home | Current Version | Previous Version | Graphics & Text | Print | Product List | Glossary On
Versions: 1 2 3 4 5 6 7 8 9 10 11 12 13 14 15 16 17 18 19 20 21 22 23 24 25 26 27 28 29 30 31 32 33 34 35 36 37 38 39 40 41 42 43 44 45 46 47 48 49 50
000
ASUS41 KCLE 272010
RWRCLE
OHIO REGIONAL WEATHER ROUNDUP
NATIONAL WEATHER SERVICE CLEVELAND, OH
400 PM EDT THU APR 27 2017

NOTE: "FAIR" INDICATES FEW OR NO CLOUDS BELOW 12,000 FEET WITH NO
SIGNIFICANT WEATHER AND/OR OBSTRUCTIONS TO VISIBILITY.

OHZ001>008-015>018-024>027-034-035-043-044-272100-
   NORTHWEST OHIO

CITY           SKY/WX    TMP DP  RH WIND       PRES   REMARKS
DEFIANCE       CLOUDY    56  43  61 W16G26    29.67R
FINDLAY        PTSUNNY   67  48  50 W28G37    29.64R
TOLEDO EXPRESS CLOUDY    64  47  53 SW24G39   29.62R
TOLEDO EXEC    MOSUNNY   67  50  54 SW28G36   29.61R
LIMA           MOSUNNY   63  48  58 W25G35    29.67R
$$

OHZ009>014-019>023-028>033-038-089-272100-
   NORTHEAST OHIO

CITY           SKY/WX    TMP DP  RH WIND       PRES   REMARKS
CLE-HOPKINS    LGT RAIN  73  55  53 SW21G29   29.60F
CLE-LAKEFRONT  LGT RAIN  70  59  68 SW22G28   29.57R
CUY CO. ARPT   CLOUDY    68  57  68 NW12G21   29.59R
LORAIN-ELYRIA  CLOUDY    73  54  51 SW23      29.59F
ASHTABULA      LGT RAIN  75  55  49 SW10      29.60R
AKRON-CANTON   PTSUNNY   71  57  61 W16G36    29.62S
WOOSTER        CLOUDY    73  56  54 SW23G30   29.61F
MANSFIELD      LGT RAIN  72  56  57 SW16G30   29.61F
YOUNGSTOWN     CLOUDY    77  54  44 S17G24    29.61S
$$

OHZ042-051>053-060>062-070>072-077>081-272100-
  SOUTHWEST OHIO

CITY           SKY/WX    TMP DP  RH WIND       PRES   REMARKS
CINC-COVINGTON PTSUNNY   63  52  67 W15G24    29.74R
CINC-LUNKEN    PTSUNNY   67  55  65 W16G29    29.73R
HAMILTON       PTSUNNY   65  51  60 SW18G28   29.74R
DAYTON         PTSUNNY   63  50  62 W22G32    29.71R
WRIGHT-PAT AFB PTSUNNY   67  52  58 SW18G24   29.69R
DAYTON GENERAL PTSUNNY   65  50  58 W17G28    29.70R
WILMINGTON     MOSUNNY   69  56  62 W25G35    29.68R
$$

OHZ036-037-039>041-045>050-054>059-063>069-073>076-082>088-272100-
  CENTRAL AND SOUTHEAST OHIO

CITY           SKY/WX    TMP DP  RH WIND       PRES   REMARKS
COLUMBUS       LGT RAIN  67  56  67 W20G35    29.65R
OSU AIRPORT    CLOUDY    67  60  78 SW16G23   29.66R
BOLTON FIELD   CLOUDY    66  61  82 W16G22    29.67R
RICKENBACK AFB CLOUDY    65  59  80 W17G31    29.66R
NEWARK         MOSUNNY   77  56  48 SW14G25   29.62F
MARION         CLOUDY    69  54  58 W20G31    29.64R
LANCASTER      MOSUNNY   79  53  40 SW21G32   29.64F
ZANESVILLE     PTSUNNY   72  59  63 W10       29.65R
NEW PHILLY     NOT AVBL
$$




USA.gov is the U.S. government's official web portal to all federal, state and local government web resources and services.